Location: Normandy Village
(37.8755°N, 122.2655°W)
Time: 00:38:25
(UTC+00:00)

ATLAS 3B R/B - Pass Details

Date: 09 December 2019
Orbit: 1027 x 1168 km, 63.8° (Epoch: 19 January)

Event Time Altitude Azimuth Distance (km) Brightness Sun altitude
Rises 14:33:40 0° 173° (S) 3,834 6.1 -7.8°
Reaches altitude 10° 14:36:51 10° 160° (SSE) 2,863 5.6 -7.2°
Maximum altitude 14:42:01 24° 109° (ESE) 2,005 5.4 -6.3°
Drops below altitude 10° 14:47:07 10° 59° (ENE) 2,830 5.4 -5.4°
Sets 14:50:13 0° 46° (NE) 3,781 5.9 -4.8°
